Location: Banksville Park
(38.5557°N, 75.1182°W)
Time: 15:33:25
(UTC+00:00)

H-2A R/B - Pass Details

Date: 19 September 2020
Orbit: 577 x 655 km, 98.5° (Epoch: 28 October)

Event Time Altitude Azimuth Distance (km) Brightness Sun altitude
Rises 08:55:45 0° 169° (SSE) 2,864 5.4 -21.9°
Reaches altitude 10° 08:57:54 10° 170° (S) 1,976 4.5 -21.5°
Maximum altitude 09:02:12 78° 256° (WSW) 648 1.9 -20.7°
Drops below altitude 10° 09:06:39 10° 344° (NNW) 2,037 4.7 -19.9°
Sets 09:08:53 0° 346° (NNW) 2,961 5.6 -19.5°
